Location: Hohenfelde
(53.8441°N, 9.6220°E)
Time: 10:44:03
(UTC+00:00)

Cosmos 1437 Rocket - Pass Details

Date: 14 July 2020
Orbit: 506 x 562 km, 81.2° (Epoch: 13 August)

Event Time Altitude Azimuth Distance (km) Brightness Sun altitude
Rises 02:04:44 0° 335° (NNW) 2,746 6.8 -7.3°
Reaches altitude 10° 02:07:24 10° 317° (NW) 1,836 5.6 -7.0°
Maximum altitude 02:10:15 19° 272° (W) 1,347 4.5 -6.8°
Drops below altitude 10° 02:13:03 10° 227° (SW) 1,802 4.8 -6.5°
Enters shadow 02:13:31 - 223° (SW) 1,938 4.9 -6.5°
